Voltar ao catálogo

SL-14 R/B

AtivoPO
NORAD 21233·ROCKET BODY·🇷🇺 Russia

Lançado Apr 24, 1991 de Plesetsk Cosmodrome

Loading…

Próximas Passagens (próximas 24 horas)

TLE

AtualizadoSource: Space-Track

Época: Sep 14, 2026, 21:27 UTC

1 21233U 91030B   26257.89425977 -.00000032  00000-0 -11639-3 0  9997
2 21233  82.5467 129.8777 0016283 324.3690  52.7754 13.16390343700553

Acompanhe SL-14 R/B em tempo real com AllMySat

Download on the App Store